TimeCDT,TemperatureF,Dew PointF,Humidity,Sea Level PressureIn,VisibilityMPH,Wind Direction,Wind SpeedMPH,Gust SpeedMPH,PrecipitationIn,Events,Conditions,WindDirDegrees,DateUTC
12:56 AM,52.0,48.9,89,30.02,10.0,Calm,Calm,-,N/A,,Clear,0,2013-10-21 05:56:00
1:56 AM,52.0,48.0,86,30.03,10.0,Calm,Calm,-,N/A,,Clear,0,2013-10-21 06:56:00
2:56 AM,51.1,48.0,89,30.03,10.0,Calm,Calm,-,N/A,,Clear,0,2013-10-21 07:56:00
3:56 AM,50.0,46.9,89,30.02,10.0,Calm,Calm,-,N/A,,Clear,0,2013-10-21 08:56:00
4:56 AM,50.0,46.9,89,30.04,10.0,Calm,Calm,-,N/A,,Scattered Clouds,0,2013-10-21 09:56:00
5:56 AM,50.0,46.9,89,30.05,10.0,Calm,Calm,-,N/A,,Scattered Clouds,0,2013-10-21 10:56:00
7:56 AM,53.1,48.9,86,30.08,10.0,North,4.6,-,N/A,,Clear,10,2013-10-21 12:56:00
8:56 AM,57.9,51.1,78,30.09,10.0,Calm,Calm,-,N/A,,Clear,0,2013-10-21 13:56:00
9:56 AM,64.9,52.0,63,30.09,10.0,ENE,3.5,-,N/A,,Clear,60,2013-10-21 14:56:00
10:56 AM,66.9,53.1,61,30.08,10.0,NE,3.5,-,N/A,,Clear,50,2013-10-21 15:56:00
11:56 AM,70.0,53.1,55,30.06,10.0,ENE,4.6,-,N/A,,Clear,70,2013-10-21 16:56:00
12:56 PM,70.0,54.0,57,30.04,10.0,NE,3.5,-,N/A,,Clear,50,2013-10-21 17:56:00
1:56 PM,71.1,54.0,55,30.03,10.0,Calm,Calm,-,N/A,,Clear,0,2013-10-21 18:56:00
2:56 PM,71.1,55.0,57,30.01,10.0,ENE,3.5,-,N/A,,Clear,60,2013-10-21 19:56:00
3:56 PM,70.0,57.0,63,30.02,10.0,NNW,3.5,-,N/A,,Clear,330,2013-10-21 20:56:00
4:56 PM,68.0,57.9,70,30.02,10.0,NNW,4.6,-,N/A,,Clear,330,2013-10-21 21:56:00
5:56 PM,64.9,59.0,81,30.01,10.0,Calm,Calm,-,N/A,,Mostly Cloudy,0,2013-10-21 22:56:00
6:56 PM,64.0,59.0,84,30.02,10.0,Calm,Calm,-,N/A,,Mostly Cloudy,0,2013-10-21 23:56:00
7:56 PM,64.0,59.0,84,30.03,10.0,Calm,Calm,-,N/A,,Overcast,0,2013-10-22 00:56:00
8:56 PM,62.1,59.0,90,30.01,10.0,Calm,Calm,-,N/A,,Overcast,0,2013-10-22 01:56:00
9:56 PM,61.0,59.0,93,30.01,10.0,South,4.6,-,0.00,,Mostly Cloudy,170,2013-10-22 02:56:00
10:56 PM,61.0,59.0,93,30.00,10.0,NNE,3.5,-,N/A,,Overcast,30,2013-10-22 03:56:00
11:56 PM,62.1,57.0,84,29.99,10.0,South,3.5,-,N/A,,Overcast,180,2013-10-22 04:56:00